FW9676 Weather Reports


Display with metric or nautical units.
time (UTC)temp
F
wind
direction
speed
MPH
gust
MPH
rain 1hr
in
rain 24hr
in
rain mn
in
humidity
%
barometer
mb
20260509091530 60 271 1.0 3.0 0.00 0.00 0.00 91 1013.7
20260509091015 60 279 0.0 3.0 0.00 0.00 0.00 91 1013.8
20260509090511 60 274 0.0 3.0 0.00 0.00 0.00 91 1013.9
20260509090030 60 0 0.0 3.0 0.00 0.00 0.00 91 1013.8
20260509085513 60 282 0.0 3.0 0.00 0.00 0.00 91 1013.8
20260509085017 60 276 1.0 3.0 0.00 0.00 0.00 91 1014.0
20260509084533 60 265 1.0 3.0 0.00 0.00 0.00 91 1014.0
20260509084013 60 248 0.0 3.0 0.00 0.00 0.00 91 1014.0
20260509083512 60 263 1.0 3.0 0.00 0.00 0.00 91 1014.0
20260509083031 60 269 1.0 3.0 0.00 0.00 0.00 91 1014.1
20260509082518 60 273 1.0 2.0 0.00 0.00 0.00 91 1014.1
20260509082013 60 0 0.0 2.0 0.00 0.00 0.00 91 1014.2
20260509081541 60 259 0.0 2.0 0.00 0.00 0.00 91 1014.2
20260509081014 60 0 0.0 2.0 0.00 0.00 0.00 91 1014.3
20260509080511 60 0 0.0 3.0 0.00 0.00 0.00 91 1014.3
20260509080030 60 0 0.0 3.0 0.00 0.00 0.00 91 1014.4
20260509075514 60 0 1.0 3.0 0.00 0.00 0.00 90 1014.4
20260509075016 60 263 1.0 4.0 0.00 0.00 0.00 90 1014.4
20260509074535 60 252 1.0 4.0 0.00 0.00 0.00 90 1014.4
20260509074013 60 248 1.0 4.0 0.00 0.00 0.00 90 1014.6
20260509073513 60 238 1.0 4.0 0.00 0.00 0.00 90 1014.5
20260509073028 60 246 1.0 3.0 0.00 0.00 0.00 90 1014.6
20260509072511 60 275 1.0 3.0 0.00 0.00 0.00 90 1014.5
20260509072013 60 0 0.0 2.0 0.00 0.00 0.00 90 1014.5
20260509071528 60 261 0.0 3.0 0.00 0.00 0.00 90 1014.5
20260509071013 60 259 1.0 3.0 0.00 0.00 0.00 90 1014.6
20260509070514 60 0 0.0 3.0 0.00 0.00 0.00 90 1014.6
20260509070030 60 225 0.0 3.0 0.00 0.00 0.00 91 1014.5
20260509065515 60 266 1.0 3.0 0.00 0.00 0.00 91 1014.5
20260509065012 60 0 0.0 3.0 0.00 0.00 0.00 91 1014.6
20260509064532 60 266 1.0 3.0 0.00 0.00 0.00 91 1014.7
20260509064014 60 263 1.0 3.0 0.00 0.00 0.00 91 1014.7
20260509063514 60 223 0.0 4.0 0.00 0.00 0.00 91 1014.7
20260509063030 60 220 1.0 4.0 0.00 0.00 0.00 91 1014.7
20260509062517 60 260 1.0 3.0 0.00 0.00 0.00 91 1014.8
20260509062013 59 227 1.0 6.0 0.00 0.00 0.00 91 1014.8
20260509061538 59 229 1.0 6.0 0.00 0.00 0.00 91 1014.9
20260509061016 59 248 2.0 5.0 0.00 0.00 0.00 91 1014.9
20260509060513 59 232 2.0 7.0 0.00 0.00 0.00 91 1014.9
20260509060032 59 234 2.0 7.0 0.00 0.00 0.00 92 1014.9
20260509055513 59 263 1.0 6.0 0.00 0.00 0.00 92 1014.9
20260509055015 59 232 1.0 6.0 0.00 0.00 0.00 92 1015.0
20260509054532 59 261 2.0 7.0 0.00 0.00 0.00 92 1015.0
20260509054013 59 238 2.0 7.0 0.00 0.00 0.00 92 1014.9
20260509053513 59 275 1.0 4.0 0.00 0.00 0.00 92 1015.0
20260509053032 59 271 1.0 4.0 0.00 0.00 0.00 92 1015.0
20260509052514 59 245 0.0 4.0 0.00 0.00 0.00 92 1014.9
20260509052018 59 0 1.0 4.0 0.00 0.00 0.00 92 1014.9
20260509051534 59 263 1.0 4.0 0.00 0.00 0.00 92 1014.8
20260509051013 59 269 1.0 6.0 0.00 0.00 0.00 91 1014.8
20260509050513 59 239 1.0 6.0 0.00 0.00 0.00 91 1014.8
20260509050042 59 263 1.0 6.0 0.00 0.00 0.00 91 1014.9
20260509045515 59 226 1.0 4.0 0.00 0.00 0.00 91 1014.7
20260509045010 59 234 2.0 4.0 0.00 0.00 0.00 91 1014.7
20260509044542 60 0 1.0 4.0 0.00 0.00 0.00 91 1014.7
20260509044011 59 267 1.0 6.0 0.00 0.00 0.00 91 1014.6
20260509043515 60 257 0.0 6.0 0.00 0.00 0.00 91 1014.6
20260509043029 60 256 2.0 6.0 0.00 0.00 0.00 91 1014.6
20260509042515 60 249 1.0 8.0 0.00 0.00 0.00 91 1014.6
20260509042011 60 251 1.0 8.0 0.00 0.00 0.00 91 1014.6
20260509041532 60 225 2.0 10.0 0.00 0.00 0.00 91 1014.5
20260509041014 60 257 4.0 10.0 0.00 0.00 0.00 91 1014.5
20260509040510 60 235 3.0 8.0 0.00 0.00 0.00 91 1014.5
20260509040029 60 265 4.0 8.0 0.00 0.00 0.00 90 1014.4
20260509035515 60 202 2.0 9.0 0.00 0.00 0.00 90 1014.4
20260509035015 60 0 3.0 9.0 0.00 0.00 0.00 90 1014.4
20260509034534 60 263 2.0 8.0 0.00 0.00 0.00 90 1014.3
20260509034014 60 284 3.0 8.0 0.00 0.00 0.00 90 1014.2
20260509033514 60 228 3.0 7.0 0.00 0.00 0.00 90 1014.2
20260509033031 60 211 2.0 8.0 0.00 0.00 0.00 90 1014.1
20260509032518 60 258 3.0 8.0 0.00 0.00 0.00 90 1014.0
20260509032013 60 269 2.0 8.0 0.00 0.00 0.00 90 1014.1
20260509031535 60 258 2.0 9.0 0.00 0.00 0.00 90 1014.0
20260509031013 61 254 3.0 9.0 0.00 0.00 0.00 90 1014.0
20260509030517 61 209 3.0 8.0 0.00 0.00 0.00 90 1013.9
20260509030033 61 252 3.0 10.0 0.00 0.00 0.00 90 1013.8
20260509025514 61 263 3.0 10.0 0.00 0.00 0.00 90 1013.7
20260509025013 61 281 3.0 9.0 0.00 0.00 0.00 90 1013.7
20260509024529 61 245 3.0 9.0 0.00 0.00 0.00 90 1013.7
20260509024015 61 210 3.0 10.0 0.00 0.00 0.00 90 1013.6
20260509023515 61 276 4.0 10.0 0.00 0.00 0.00 90 1013.5
20260509023036 61 263 3.0 12.0 0.00 0.00 0.00 90 1013.5
20260509022515 61 263 6.0 12.0 0.00 0.00 0.00 89 1013.4
20260509022014 61 263 3.0 10.0 0.00 0.00 0.00 89 1013.4
20260509021532 61 254 3.0 10.0 0.00 0.00 0.00 89 1013.5
20260509021014 61 273 3.0 11.0 0.00 0.00 0.00 89 1013.5
20260509020516 61 260 6.0 12.0 0.00 0.00 0.00 89 1013.5
20260509020034 62 267 5.0 12.0 0.00 0.00 0.00 89 1013.5
20260509015510 62 304 6.0 12.0 0.00 0.00 0.00 89 1013.4
20260509015012 62 266 4.0 12.0 0.00 0.00 0.00 89 1013.4
20260509014534 62 272 5.0 13.0 0.00 0.00 0.00 89 1013.3
20260509014013 62 242 6.0 13.0 0.00 0.00 0.00 88 1013.2
20260509013513 62 261 4.0 11.0 0.00 0.00 0.00 88 1013.4
20260509013048 62 252 5.0 14.0 0.00 0.00 0.00 88 1013.3
20260509012515 62 214 6.0 15.0 0.00 0.00 0.00 88 1013.3
20260509012013 63 242 6.0 15.0 0.00 0.00 0.00 87 1013.3
20260509011535 63 267 3.0 15.0 0.00 0.00 0.00 87 1013.4
20260509011013 64 267 4.0 15.0 0.00 0.00 0.00 86 1013.4
20260509010513 64 265 4.0 12.0 0.00 0.00 0.00 86 1013.4
20260509010032 64 223 4.0 12.0 0.00 0.00 0.00 86 1013.4
20260509005514 64 236 6.0 15.0 0.00 0.00 0.00 86 1013.3
20260509005013 64 273 7.0 15.0 0.00 0.00 0.00 86 1013.4
20260509004533 64 267 6.0 15.0 0.00 0.00 0.00 85 1013.6
20260509004013 64 270 5.0 15.0 0.00 0.00 0.00 86 1013.6
20260509003515 64 302 5.0 14.0 0.00 0.00 0.00 86 1013.6
20260509003033 64 273 6.0 16.0 0.00 0.00 0.00 85 1013.5
20260509002514 65 224 6.0 16.0 0.00 0.00 0.00 84 1013.5
20260509002013 65 280 6.0 16.0 0.00 0.00 0.00 84 1013.6
20260509001532 65 269 7.0 14.0 0.00 0.00 0.00 84 1013.6
20260509001013 65 235 5.0 13.0 0.00 0.00 0.00 82 1013.7
20260509000513 65 197 6.0 13.0 0.00 0.00 0.00 82 1013.7
20260509000029 66 223 5.0 13.0 0.00 0.00 0.00 81 1013.6
20260508235513 66 263 6.0 13.0 0.00 0.00 0.00 81 1013.6
20260508235014 67 292 8.0 12.0 0.00 0.00 0.00 80 1013.6
20260508234531 67 246 5.0 14.0 0.00 0.00 0.00 80 1013.6
20260508234014 67 251 7.0 14.0 0.00 0.00 0.00 79 1013.7
20260508233513 67 260 6.0 12.0 0.00 0.00 0.00 79 1013.6
20260508233033 68 203 5.0 13.0 0.00 0.00 0.00 78 1013.7
20260508232514 68 279 6.0 13.0 0.00 0.00 0.00 78 1013.6
20260508232013 68 219 4.0 12.0 0.00 0.00 0.00 78 1013.7
20260508231530 68 277 5.0 13.0 0.00 0.00 0.00 78 1013.9
20260508231014 67 269 6.0 14.0 0.00 0.00 0.00 79 1014.0
20260508230511 67 281 6.0 14.0 0.00 0.00 0.00 79 1014.0
20260508230049 67 240 6.0 13.0 0.00 0.00 0.00 79 1014.0
20260508225510 67 252 4.0 12.0 0.00 0.00 0.00 79 1014.1
20260508225012 67 265 6.0 13.0 0.00 0.00 0.00 79 1014.2
20260508224554 67 264 5.0 15.0 0.00 0.00 0.00 79 1014.2
20260508224013 68 274 5.0 15.0 0.00 0.00 0.00 78 1014.2
20260508223516 68 278 5.0 13.0 0.00 0.00 0.00 78 1014.2
20260508223034 68 288 6.0 13.0 0.00 0.00 0.00 78 1014.3
20260508222515 68 243 4.0 15.0 0.00 0.00 0.00 78 1014.4
20260508222016 68 286 6.0 15.0 0.00 0.00 0.00 78 1014.5
20260508221530 67 256 6.0 15.0 0.00 0.00 0.00 79 1014.4
20260508221017 68 288 6.0 14.0 0.00 0.00 0.00 78 1014.5
20260508220514 68 265 6.0 13.0 0.00 0.00 0.00 78 1014.5
20260508220033 67 219 6.0 15.0 0.00 0.00 0.00 80 1014.6
20260508215513 68 261 7.0 15.0 0.00 0.00 0.00 79 1014.7
20260508215011 68 265 7.0 15.0 0.00 0.00 0.00 78 1014.7
20260508214532 68 267 8.0 16.0 0.00 0.00 0.00 79 1014.7
20260508214016 68 271 8.0 16.0 0.00 0.00 0.00 77 1014.8
20260508213510 69 267 7.0 15.0 0.00 0.00 0.00 77 1014.9
20260508213029 69 268 5.0 14.0 0.00 0.00 0.00 75 1014.9
20260508212514 68 204 4.0 13.0 0.00 0.00 0.00 77 1014.9
20260508212013 68 259 6.0 13.0 0.00 0.00 0.00 76 1015.0
20260508211531 69 228 6.0 13.0 0.00 0.00 0.00 76 1015.0
20260508211016 69 266 6.0 13.0 0.00 0.00 0.00 76 1015.1
20260508210515 69 275 5.0 12.0 0.00 0.00 0.00 75 1015.1
20260508210032 69 277 4.0 13.0 0.00 0.00 0.00 77 1015.1
20260508205518 68 254 6.0 14.0 0.00 0.00 0.00 77 1015.2
20260508205014 69 238 6.0 14.0 0.00 0.00 0.00 76 1015.2
20260508204530 69 209 5.0 13.0 0.00 0.00 0.00 76 1015.2
20260508204015 69 263 5.0 13.0 0.00 0.00 0.00 77 1015.3
20260508203511 69 219 5.0 13.0 0.00 0.00 0.00 77 1015.3
20260508203032 69 271 7.0 12.0 0.00 0.00 0.00 76 1015.3
20260508202514 69 271 5.0 12.0 0.00 0.00 0.00 77 1015.4
20260508202014 69 202 4.0 12.0 0.00 0.00 0.00 76 1015.4
20260508201533 69 266 4.0 12.0 0.00 0.00 0.00 76 1015.4
20260508201017 69 259 5.0 11.0 0.00 0.00 0.00 77 1015.5
20260508200513 69 242 3.0 12.0 0.00 0.00 0.00 77 1015.5
20260508200030 69 239 5.0 12.0 0.00 0.00 0.00 77 1015.5
20260508195513 70 213 3.0 10.0 0.00 0.00 0.00 76 1015.5
20260508195017 69 246 4.0 9.0 0.00 0.00 0.00 76 1015.6
20260508194530 69 257 3.0 9.0 0.00 0.00 0.00 77 1015.6
20260508194013 69 228 3.0 9.0 0.00 0.00 0.00 78 1015.6
20260508193511 68 259 5.0 9.0 0.00 0.00 0.00 78 1015.6
20260508193059 68 228 4.0 10.0 0.00 0.00 0.00 78 1015.7
20260508192515 68 275 4.0 10.0 0.00 0.00 0.00 79 1015.7
20260508192017 68 254 4.0 10.0 0.00 0.00 0.00 79 1015.9
20260508191532 68 258 4.0 10.0 0.00 0.00 0.00 79 1015.9
20260508191018 68 256 3.0 9.0 0.00 0.00 0.00 79 1016.0
20260508190518 68 271 3.0 9.0 0.00 0.00 0.00 79 1016.0
20260508190036 68 265 4.0 9.0 0.00 0.00 0.00 79 1016.1
20260508185517 68 275 2.0 8.0 0.00 0.00 0.00 79 1016.1
20260508185013 68 224 2.0 7.0 0.00 0.00 0.00 79 1016.3
20260508184530 68 259 2.0 7.0 0.00 0.00 0.00 79 1016.2
20260508184011 68 293 1.0 6.0 0.00 0.00 0.00 79 1016.2
20260508183515 68 238 0.0 4.0 0.00 0.00 0.00 78 1016.3
20260508183031 68 76 1.0 5.0 0.00 0.00 0.00 79 1016.3
20260508182514 67 68 2.0 5.0 0.00 0.00 0.00 79 1016.3
20260508182015 67 84 1.0 4.0 0.00 0.00 0.00 79 1016.3
20260508181533 67 140 1.0 4.0 0.00 0.00 0.00 79 1016.3
20260508181016 67 116 0.0 5.0 0.00 0.00 0.00 80 1016.4
20260508180514 66 104 1.0 5.0 0.00 0.00 0.00 80 1016.5
20260508180032 66 105 1.0 6.0 0.00 0.00 0.00 81 1016.4
20260508175514 66 0 1.0 6.0 0.00 0.00 0.00 81 1016.5
20260508175016 66 123 1.0 5.0 0.00 0.00 0.00 82 1016.5
20260508174543 66 138 2.0 5.0 0.00 0.00 0.00 82 1016.5
20260508174014 65 73 1.0 6.0 0.00 0.00 0.00 82 1016.4
20260508173514 65 0 1.0 6.0 0.00 0.00 0.00 82 1016.6
20260508173031 65 82 1.0 6.0 0.00 0.00 0.00 83 1016.7
20260508172513 65 117 1.0 6.0 0.00 0.00 0.00 83 1016.8
20260508172013 65 75 1.0 4.0 0.00 0.00 0.00 84 1016.8
20260508171531 64 0 1.0 7.0 0.00 0.00 0.00 84 1016.8
20260508171022 64 0 1.0 8.0 0.00 0.00 0.00 84 1016.8
20260508170514 64 161 3.0 8.0 0.00 0.00 0.00 84 1016.7
20260508170032 64 126 2.0 6.0 0.00 0.00 0.00 84 1016.7
20260508165513 64 120 1.0 6.0 0.00 0.00 0.00 85 1016.7
20260508165014 64 122 2.0 6.0 0.00 0.00 0.00 85 1016.7
20260508164536 63 143 1.0 5.0 0.00 0.00 0.00 86 1016.6
20260508164015 63 134 2.0 5.0 0.00 0.00 0.00 86 1016.6
20260508163513 63 81 2.0 6.0 0.00 0.00 0.00 86 1016.6
20260508163033 63 154 2.0 6.0 0.00 0.00 0.00 86 1016.7
20260508162513 63 98 2.0 4.0 0.00 0.00 0.00 86 1016.5
20260508162014 63 89 2.0 4.0 0.00 0.00 0.00 87 1016.6
20260508161539 63 78 1.0 6.0 0.00 0.00 0.00 87 1016.7
20260508161015 63 149 2.0 6.0 0.00 0.00 0.00 87 1016.6
20260508160512 62 142 2.0 7.0 0.00 0.00 0.00 88 1016.6
20260508160035 62 112 3.0 7.0 0.00 0.00 0.00 87 1016.6
20260508155512 62 99 2.0 6.0 0.00 0.00 0.00 88 1016.5
20260508155014 62 103 1.0 4.0 0.00 0.00 0.00 88 1016.5
20260508154532 62 0 1.0 4.0 0.00 0.00 0.00 88 1016.4
20260508154012 62 90 2.0 6.0 0.00 0.00 0.00 88 1016.4
20260508153513 62 77 1.0 6.0 0.00 0.00 0.00 89 1016.4
20260508153037 62 115 1.0 6.0 0.00 0.00 0.00 89 1016.4
20260508152511 62 124 2.0 5.0 0.00 0.00 0.00 89 1016.6
20260508152011 62 61 2.0 6.0 0.00 0.00 0.00 89 1016.5
20260508151538 62 105 2.0 7.0 0.00 0.00 0.00 89 1016.6
20260508151017 62 100 2.0 7.0 0.00 0.00 0.00 89 1016.6
20260508150517 61 134 2.0 6.0 0.00 0.00 0.00 89 1016.6
20260508150030 61 69 2.0 6.0 0.00 0.00 0.00 89 1016.6
20260508145511 61 101 2.0 6.0 0.00 0.00 0.00 90 1016.6
20260508145016 61 69 2.0 7.0 0.00 0.00 0.00 90 1016.6
20260508144530 61 130 1.0 7.0 0.00 0.00 0.00 90 1016.6
20260508144012 61 82 1.0 4.0 0.00 0.00 0.00 91 1016.5
20260508143514 61 98 1.0 7.0 0.00 0.00 0.00 91 1016.6
20260508143031 61 106 2.0 7.0 0.00 0.00 0.00 91 1016.5
20260508142512 61 101 1.0 4.0 0.00 0.00 0.00 91 1016.6
20260508142009 61 96 2.0 5.0 0.00 0.00 0.00 91 1016.5
20260508141532 61 126 2.0 5.0 0.00 0.00 0.00 91 1016.5
20260508141012 61 128 1.0 6.0 0.00 0.00 0.00 92 1016.5
20260508140511 60 79 1.0 6.0 0.00 0.00 0.00 92 1016.3
20260508140030 60 67 2.0 4.0 0.00 0.00 0.00 92 1016.3
20260508135515 60 107 2.0 6.0 0.00 0.00 0.00 92 1016.2
20260508135011 60 101 1.0 6.0 0.00 0.00 0.00 92 1016.3
20260508134532 60 103 2.0 6.0 0.00 0.00 0.00 93 1016.3
20260508134012 60 143 1.0 6.0 0.00 0.00 0.00 93 1016.2
20260508133512 60 131 1.0 6.0 0.00 0.00 0.00 93 1016.3
20260508133051 60 118 0.0 6.0 0.00 0.00 0.00 93 1016.3
20260508132513 60 161 1.0 6.0 0.00 0.00 0.00 93 1016.3
20260508132017 60 114 1.0 6.0 0.00 0.00 0.00 93 1016.3
20260508131528 60 130 1.0 6.0 0.00 0.00 0.00 93 1016.1
20260508131010 60 140 1.0 6.0 0.00 0.00 0.00 93 1016.1
20260508130510 60 96 1.0 9.0 0.00 0.00 0.00 93 1016.0
20260508130029 60 112 3.0 9.0 0.00 0.00 0.00 93 1015.9
20260508125515 60 94 3.0 9.0 0.00 0.00 0.00 93 1015.9
20260508125015 60 84 1.0 9.0 0.00 0.00 0.00 93 1015.9
20260508124534 60 134 4.0 9.0 0.00 0.00 0.00 93 1015.8
20260508124013 61 109 2.0 7.0 0.00 0.00 0.00 93 1015.9
20260508123511 61 115 3.0 7.0 0.00 0.00 0.00 93 1015.8
20260508123034 61 103 2.0 6.0 0.00 0.00 0.00 93 1015.7
20260508122512 61 104 2.0 6.0 0.00 0.00 0.00 93 1015.6
20260508122010 61 99 1.0 4.0 0.00 0.00 0.00 93 1015.7
20260508121533 61 117 1.0 6.0 0.00 0.00 0.00 93 1015.7
20260508121012 61 100 2.0 6.0 0.00 0.00 0.00 92 1015.5
20260508120512 61 103 2.0 6.0 0.00 0.00 0.00 92 1015.5
20260508120031 61 99 2.0 6.0 0.00 0.00 0.00 92 1015.5
20260508115512 61 110 1.0 5.0 0.00 0.00 0.00 92 1015.5
20260508115008 61 132 1.0 4.0 0.00 0.00 0.00 92 1015.5
20260508114530 61 119 1.0 4.0 0.00 0.00 0.00 92 1015.5
20260508114013 60 109 1.0 7.0 0.00 0.00 0.00 92 1015.6
20260508113515 60 116 1.0 7.0 0.00 0.00 0.00 92 1015.5
20260508113037 60 111 2.0 6.0 0.00 0.00 0.00 92 1015.4
20260508112517 60 99 2.0 7.0 0.00 0.00 0.00 91 1015.5
20260508112011 60 98 2.0 7.0 0.00 0.00 0.00 91 1015.4
20260508111529 61 112 2.0 6.0 0.00 0.00 0.00 91 1015.4
20260508111011 61 75 2.0 4.0 0.00 0.00 0.00 91 1015.3
20260508110513 61 0 2.0 4.0 0.00 0.00 0.00 91 1015.4
20260508110032 61 126 2.0 4.0 0.00 0.00 0.00 90 1015.3
20260508105512 61 133 2.0 4.0 0.00 0.00 0.00 90 1015.3
20260508105011 60 69 1.0 3.0 0.00 0.00 0.00 90 1015.4
20260508104528 60 103 1.0 4.0 0.00 0.00 0.00 90 1015.5
20260508104010 60 86 1.0 5.0 0.00 0.00 0.00 90 1015.5
20260508103510 60 103 2.0 5.0 0.00 0.00 0.00 90 1015.5
20260508103029 60 114 1.0 3.0 0.00 0.00 0.00 90 1015.5
20260508102513 60 100 1.0 3.0 0.00 0.00 0.00 90 1015.4
20260508102012 60 0 0.0 2.0 0.00 0.00 0.00 90 1015.5
20260508101528 60 157 1.0 6.0 0.00 0.00 0.00 90 1015.5
20260508101010 60 0 1.0 6.0 0.00 0.00 0.00 89 1015.5
20260508100511 60 151 1.0 6.0 0.00 0.00 0.00 90 1015.3
20260508100028 60 132 2.0 6.0 0.00 0.00 0.00 90 1015.4
20260508095512 60 128 1.0 5.0 0.00 0.00 0.00 90 1015.5
20260508095013 60 155 1.0 5.0 0.00 0.00 0.00 89 1015.5
20260508094530 60 101 2.0 5.0 0.00 0.00 0.00 89 1015.6
20260508094014 60 167 2.0 5.0 0.00 0.00 0.00 89 1015.7
20260508093516 61 117 1.0 5.0 0.00 0.00 0.00 89 1015.7
20260508093031 60 95 1.0 6.0 0.00 0.00 0.00 90 1015.7
20260508092509 60 105 1.0 6.0 0.00 0.00 0.00 90 1015.8
20260508092009 61 148 2.0 5.0 0.00 0.00 0.00 90 1015.7
20260508091545 61 109 1.0 4.0 0.00 0.00 0.00 90 1015.9